星链-6195 (STARLINK-6195 )

导读 | 星芒AI

STARLINK-6195 是 SpaceX Starlink 项目中的一颗低轨通信卫星,属于第六批发射的 Starlink 卫星群。该卫星运行在约 550 公里的近地轨道,旨在为全球用户提供高速互联网服务。它采用先进的相控阵天线和激光通信技术,支持高带宽、低延迟的网络连接。作为 Starlink 卫星互联网系统的一部分,STARLINK-6195 有助于扩大覆盖范围,特别是在偏远和网络基础设施薄弱的地区。该卫星于 2022 年由猎鹰 9 号火箭送入太空,是 SpaceX 构建全球宽带网络计划的重要组成部分。

基本信息
目录编号:
56902
目录名称:
STARLINK-6195
国际标识:
2023-083AC
轨道中心:
EARTH
卫星名称:
星链-6195
卫星全名:
星链-6195 (STARLINK-6195 )
卫星状态:
在轨 (已飞行875 天)
发射日期:
2023-06-12 UTC
国别 :
美国 (US)
星等 :
--
轨道信息
数据来源 国际轨道数据
星历时间: 2025-11-02T07:27:02+0800
2天前
查看轨道信息
半长轴: 6937.225km
偏心率: 0.0001217
轨道倾角: 43.004°
近地点辐角 274.854°
升交点赤经 43.203°
平近点角 85.216°
近地点: 558.245km
远地点: 559.935km
周期: 95.838分钟
每日圈数: 15.025333
详细信息
固有亮度:
5
最大亮度:
2.4
卫星平台:
Starlink v1.5
覆盖范围:
全球
运营商:
太空探索技术公司
运营商所在国:
美国
制造商(研发单位):
太空探索技术公司
制造商所在国:
美国
使用方式:
暂无
卫星简介
星链(Starlink)计划是由太空探索技术公司(SpaceX)提出的一个巨型低轨卫星互联网星座项目,计划在2019年至2024年间在太空搭建由约1.2万颗卫星组成的“星链”网络,其中1584颗将部署在地球上空550千米处的近地轨道,并从2020年开始工作。该卫星仍在工作。
2D轨道图
3D轨道图
轨道高度分析图
轨道倾角分析图
轨道综合分析图
查看轨道综合分析图